Boundary Cnty AP, Bonners Fer, ID

10:37 AM PDT on July 27, 2017 (GMT -0700)
Boundary Cnty AP, Bonners Fer

Weather History for K65S - February, 2014

Change the Weather History Date:

Saturday, February 22, 2014

  Actual Average (KSZT) Record (KSZT)
Temperature  
Mean Temperature 22 °F -  
Max Temperature 32 °F 40 °F 44 °F (2016)
Min Temperature 12 °F 26 °F 17 °F (2014)
Degree Days  
Heating Degree Days 43    
Moisture  
Dew Point 13 °F    
Average Humidity 72    
Maximum Humidity 93    
Minimum Humidity 38    
Precipitation  
Precipitation 0.00 in - - ()
Sea Level Pressure  
Sea Level Pressure 30.08 in    
Wind  
Wind Speed 0 mph (NW)    
Max Wind Speed 6 mph    
Max Gust Speed -    
Visibility 10 miles    
Events      
Averages and records for this station are not official NWS values.
T = Trace of Precipitation, MM = Missing Value Source: NWS Daily Summary

Daily Weather History Graph

Daily Weather History Graph

Search for Another Location

Airport or City:

Trip Planner

Search our weather history database for the weather conditions in past years. The results will help you decide how hot, cold, wet, or windy it might be!

Date:

Astronomy

Feb. 22, 2014 Rise Set
Actual Time 6:40 AM PST 5:17 PM PST
Civil Twilight 6:08 AM PST 5:49 PM PST
Nautical Twilight 5:31 AM PST 6:26 PM PST
Astronomical Twilight 4:55 AM PST 7:02 PM PST
Moon 12:52 AM PST (2/22) 10:18 AM PST (2/22)
Length of Visible Light 11h 41m
Length of Day
10h 37m
Waning Gibbous, 49% of the Moon is Illuminated
Feb 22
Waning Gibbous
Mar 1
New
Mar 8
First Quarter
Mar 16
Full
Mar 23
Last Quarter

Hourly Weather History & Observations

Time (PST) Temp. Windchill Dew Point Humidity Pressure Visibility Wind Dir Wind Speed Gust Speed Precip Events Conditions
12:15 AM 15.8 °F - 12.2 °F 86% 30.09 in 10.0 mi Calm Calm - N/A   Clear
12:35 AM 17.6 °F - 14.0 °F 86% 30.09 in 10.0 mi Calm Calm - N/A   Clear
12:55 AM 15.8 °F - 14.0 °F 93% 30.09 in 10.0 mi Calm Calm - N/A   Clear
1:15 AM 15.8 °F - 14.0 °F 93% 30.09 in 10.0 mi Calm Calm - N/A   Clear
1:35 AM 15.8 °F - 12.2 °F 86% 30.09 in 10.0 mi Calm Calm - N/A   Clear
1:55 AM 15.8 °F - 12.2 °F 86% 30.09 in 10.0 mi Calm Calm - N/A   Clear
2:15 AM 15.8 °F - 12.2 °F 86% 30.09 in 10.0 mi Calm Calm - N/A   Clear
2:35 AM 14.0 °F - 12.2 °F 93% 30.09 in 10.0 mi Calm Calm - N/A   Clear
2:55 AM 14.0 °F - 10.4 °F 86% 30.09 in 10.0 mi Calm Calm - N/A   Clear
3:15 AM 14.0 °F - 12.2 °F 93% 30.10 in 10.0 mi Calm Calm - N/A   Clear
3:35 AM 14.0 °F - 10.4 °F 86% 30.10 in 10.0 mi Calm Calm - N/A   Clear
3:55 AM 14.0 °F - 10.4 °F 86% 30.10 in 10.0 mi Calm Calm - N/A   Clear
4:15 AM 14.0 °F - 10.4 °F 86% 30.10 in 10.0 mi Calm Calm - N/A   Clear
4:35 AM 14.0 °F - 10.4 °F 86% 30.11 in 10.0 mi Calm Calm - N/A   Clear
4:55 AM 14.0 °F - 10.4 °F 86% 30.11 in 10.0 mi Calm Calm - N/A   Scattered Clouds
5:15 AM 12.2 °F - 8.6 °F 85% 30.11 in 10.0 mi Calm Calm - N/A   Scattered Clouds
5:35 AM 14.0 °F - 10.4 °F 86% 30.11 in 10.0 mi Calm Calm - N/A   Clear
5:55 AM 14.0 °F - 10.4 °F 86% 30.11 in 10.0 mi Calm Calm - N/A   Clear
6:15 AM 12.2 °F - 10.4 °F 92% 30.11 in 10.0 mi Calm Calm - N/A   Partly Cloudy
6:35 AM 12.2 °F - 10.4 °F 92% 30.11 in 10.0 mi Calm Calm - N/A   Mostly Cloudy
6:55 AM 14.0 °F - 10.4 °F 86% 30.11 in 10.0 mi Calm Calm - N/A   Mostly Cloudy
7:15 AM 14.0 °F - 10.4 °F 86% 30.12 in 10.0 mi Calm Calm - N/A   Mostly Cloudy
7:35 AM 14.0 °F - 12.2 °F 93% 30.12 in 10.0 mi Calm Calm - N/A   Overcast
7:55 AM 15.8 °F - 12.2 °F 86% 30.12 in 10.0 mi Calm Calm - N/A   Mostly Cloudy
8:15 AM 15.8 °F - 12.2 °F 86% 30.12 in 10.0 mi Calm Calm - N/A   Scattered Clouds
8:35 AM 15.8 °F - 12.2 °F 86% 30.12 in 10.0 mi Calm Calm - N/A   Mostly Cloudy
8:55 AM 17.6 °F - 12.2 °F 79% 30.12 in 10.0 mi Calm Calm - N/A   Scattered Clouds
9:15 AM 17.6 °F - 12.2 °F 79% 30.12 in 10.0 mi Calm Calm - N/A   Clear
9:35 AM 19.4 °F - 12.2 °F 74% 30.12 in 10.0 mi Calm Calm - N/A   Clear
9:55 AM 19.4 °F - 12.2 °F 74% 30.12 in 10.0 mi Calm Calm - N/A   Clear
10:15 AM 21.2 °F - 12.2 °F 68% 30.11 in 10.0 mi Calm Calm - N/A   Clear
10:35 AM 23.0 °F - 12.2 °F 63% 30.11 in 10.0 mi Calm Calm - N/A   Clear
10:55 AM 23.0 °F - 14.0 °F 68% 30.11 in 10.0 mi Calm Calm - N/A   Clear
11:15 AM 24.8 °F - 12.2 °F 59% 30.10 in 10.0 mi Calm Calm - N/A   Clear
11:35 AM 24.8 °F - 14.0 °F 64% 30.10 in 10.0 mi Calm Calm - N/A   Clear
11:55 AM 24.8 °F - 12.2 °F 59% 30.09 in 10.0 mi Calm Calm - N/A   Clear
12:15 PM 26.6 °F - 12.2 °F 55% 30.08 in 10.0 mi Calm Calm - N/A   Clear
12:35 PM 26.6 °F - 14.0 °F 59% 30.07 in 10.0 mi Calm Calm - N/A   Clear
12:55 PM 28.4 °F - 15.8 °F 59% 30.07 in 10.0 mi Calm Calm - N/A   Clear
1:15 PM 28.4 °F - 12.2 °F 51% 30.06 in 10.0 mi Calm Calm - N/A   Clear
1:35 PM 30.2 °F - 14.0 °F 51% 30.05 in 10.0 mi Calm Calm - N/A   Clear
1:55 PM 28.4 °F - 6.8 °F 40% 30.05 in 10.0 mi Calm Calm - N/A   Clear
2:15 PM 28.4 °F - 8.6 °F 43% 30.05 in 10.0 mi Calm Calm - N/A   Scattered Clouds
2:35 PM 32.0 °F - 8.6 °F 38% 30.05 in 10.0 mi Calm Calm - N/A   Scattered Clouds
2:55 PM 32.0 °F - 8.6 °F 38% 30.04 in 10.0 mi Calm Calm - N/A   Partly Cloudy
3:15 PM 32.0 °F - 10.4 °F 41% 30.04 in 10.0 mi Calm Calm - N/A   Mostly Cloudy
3:35 PM 30.2 °F - 10.4 °F 44% 30.04 in 10.0 mi Calm Calm - N/A   Mostly Cloudy
3:55 PM 30.2 °F - 14.0 °F 51% 30.04 in 10.0 mi Calm Calm - N/A   Overcast
4:15 PM 28.4 °F - 10.4 °F 47% 30.04 in 10.0 mi Calm Calm - N/A   Overcast
4:35 PM 28.4 °F 22.2 °F 14.0 °F 55% 30.04 in 10.0 mi NW 5.8 mph - N/A   Overcast
4:55 PM 28.4 °F - 15.8 °F 59% 30.04 in 10.0 mi Calm Calm - N/A   Overcast
5:15 PM 26.6 °F - 14.0 °F 59% 30.04 in 10.0 mi Calm Calm - N/A   Mostly Cloudy
5:35 PM 26.6 °F - 14.0 °F 59% 30.04 in 10.0 mi Calm Calm - N/A   Mostly Cloudy
5:55 PM 26.6 °F - 14.0 °F 59% 30.04 in 10.0 mi Calm Calm - N/A   Overcast
6:15 PM 24.8 °F - 14.0 °F 64% 30.05 in 10.0 mi Calm Calm - N/A   Overcast
6:35 PM 24.8 °F - 15.8 °F 69% 30.05 in 10.0 mi Calm Calm - N/A   Overcast
6:55 PM 24.8 °F - 15.8 °F 69% 30.05 in 10.0 mi Calm Calm - N/A   Overcast
7:15 PM 24.8 °F - 15.8 °F 69% 30.04 in 10.0 mi Calm Calm - N/A   Overcast
7:35 PM 24.8 °F - 15.8 °F 69% 30.04 in 10.0 mi Calm Calm - N/A   Overcast
7:55 PM 24.8 °F - 15.8 °F 69% 30.05 in 10.0 mi Calm Calm - N/A   Overcast
8:15 PM 24.8 °F - 14.0 °F 64% 30.05 in 10.0 mi Calm Calm - N/A   Overcast
8:35 PM 24.8 °F - 14.0 °F 64% 30.05 in 10.0 mi Calm Calm - N/A   Overcast
8:55 PM 23.0 °F - 15.8 °F 74% 30.06 in 10.0 mi Calm Calm - N/A   Overcast
9:15 PM 23.0 °F - 15.8 °F 74% 30.06 in 10.0 mi Calm Calm - N/A   Overcast
9:35 PM 23.0 °F - 15.8 °F 74% 30.06 in 10.0 mi Calm Calm - N/A   Overcast
9:55 PM 23.0 °F - 15.8 °F 74% 30.06 in 10.0 mi Calm Calm - N/A   Overcast
10:15 PM 23.0 °F - 15.8 °F 74% 30.05 in 10.0 mi Calm Calm - N/A   Overcast
10:35 PM 23.0 °F - 15.8 °F 74% 30.05 in 10.0 mi Calm Calm - N/A   Overcast
10:55 PM 21.2 °F - 15.8 °F 80% 30.06 in 10.0 mi Calm Calm - N/A   Overcast
11:15 PM 19.4 °F - 15.8 °F 86% 30.06 in 10.0 mi Calm Calm - N/A   Overcast
11:35 PM 19.4 °F - 15.8 °F 86% 30.06 in 10.0 mi Calm Calm - N/A   Overcast
11:55 PM 19.4 °F - 15.8 °F 86% 30.06 in 10.0 mi Calm Calm - N/A   Overcast